[Date Prev][Date Next][Thread Prev][Thread Next] - [Date Index][Thread Index][Author Index]

2 Line ISS Keps 4-26



ISS
1 25544U 98067A   05116.31207818  .00004985  00000-0  42657-4 0  3317
2 25544 051.6439 166.5022 0007665 051.8070 043.8948 15.71549535367521
----
Via the sarex mailing list at AMSAT.ORG courtesy of AMSAT-NA.
To unsubscribe, send "unsubscribe sarex" to Majordomo@amsat.org



AMSAT Top AMSAT Home